Find Starlink 30381

NORAD ID: 57785 Int'l Des: 2023-134 Owner: SPXS Country: US Constellation: starlink operational
LEOCIRCULAR

Current View

Loading 3D Globe...

About Starlink 30381

Starlink 30381 (NORAD 57785) is a starlink constellation satellite (v2 mini) launched Sep 4, 2023 by SPXS of US. It operates in LEO, CIRCULAR orbit with a mass of 730.00 kg.

Upcoming Passes

Passes for default location (London). Set your location on the main map for personalized predictions.

Altitude History

Loading altitude history...

Two-Line Element Set

1 57785U 23134Q 26236.32211906 -.00012105 00000-0 -43019-3 0 9999
2 57785 43.0073 327.7283 0002023 286.6569 73.4061 15.27645009165149
Epoch: Aug 24, 2026 • Age: 11 hours

Current Status

Altitude 487.3 km
Apogee / Perigee N/A
Velocity 7.63 km/s
Sub-Earth Point 42.74°N, 164.77°E
Launch Date Sep 4, 2023
Age 2.9 years
Type internet

Technical Details

Classification Payload
Mass 730.00 kg
Dry Mass 700.00 kg
Total Mass 730.00 kg
Length 0.30 m
Diameter 4.10 m
Span 29.00 m
Shape Box + pan
Manufacturer SPXS
Bus Type Starlink V2M
Phase Status In Orbit
Owner/State SPXS/US

Most Searched